Regional Weather Roundup
Issued by NWS Burlington, VT

Home | Current Version | Previous Version | Text Only | Print | Product List | Glossary On
Versions: 1 2 3 4 5 6 7 8 9 10 11 12 13 14 15 16 17 18 19 20 21 22 23 24 25 26 27 28 29 30 31 32 33 34 35 36 37 38 39 40 41 42 43 44 45 46 47 48 49 50
000
ASUS41 KBTV 250830
RWRBTV
VERMONT REGIONAL WEATHER ROUNDUP
NATIONAL WEATHER SERVICE BURLINGTON VT
300 AM EST THU DEC 25 2014

NOTE: "FAIR" INDICATES FEW OR NO CLOUDS BELOW 12,000 FEET WITH NO
SIGNIFICANT WEATHER AND/OR OBSTRUCTIONS TO VISIBILITY.

* THESE REPORTS ARE NOT UNDER NWS QUALITY CONTROL AND/OR DO NOT
  REPORT WEATHER SUCH AS PRECIPITATION AND FOG.

VTZ001>019-250900-
_____VERMONT_____


CITY           SKY/WX    TMP DP  RH WIND       PRES   REMARKS
BURLINGTON     CLOUDY    49  46  90 S13       29.32F
MONTPELIER     CLOUDY    37  37 100 S6        29.45R FOG
MORRISVILLE    CLOUDY    38  36  92 S5        29.40F
ST. JOHNSBURY*   N/A     36  36 100 MISG      29.41F
LYNDONVILLE*   FOG       41  39  92 SE7       29.42S VSB 1/4
MIDDLEBURY*    LGT RAIN  41  41 100 CALM      29.38R
RUTLAND*       CLOUDY    52  48  87 SE17      29.38R
SPRINGFIELD    FOG       34  33  96 N3        29.48R VSB 1/2
HIGHGATE*      CLOUDY    51  49  94 S10G17    29.29S
NEWPORT*       CLOUDY    40  39  98 S8        29.38S
BENNINGTON     CLOUDY    63  55  75 S12G26    29.42R
SUTTON*          N/A     37 N/A N/A MISG        N/A
GALLUP MILLS*    N/A     34 N/A N/A MISG        N/A
UNION VILLAGE*   N/A     34 N/A N/A MISG        N/A
MT. MANSFIELD*   N/A     46 N/A N/A CALM        N/A

_____LAKE CHAMPLAIN_____


CITY           SKY/WX    TMP DP  RH WIND       PRES   REMARKS
BURTON ISLAND*   N/A     48  46  93 SE22        N/A
COLCHESTER RF*   N/A     45  45 100 S21         N/A

$$

NYZ007-026>031-035-052-083-250900-
_____NORTHERN NEW YORK_____


CITY           SKY/WX    TMP DP  RH WIND       PRES   REMARKS
SARANAC LAKE   CLOUDY    50  49  96 S18       29.28R
MASSENA        CLOUDY    48  45  89 SW25G38   29.29S
POTSDAM*       RAIN      48  46  93 W21G33    29.31R
STARK FALLS*     N/A     48 N/A N/A SW18        N/A
WATERTOWN      CLOUDY    47  41  80 SW18G26   29.38R
FT DRUM        LGT RAIN  50  46  87 W21G37    29.32R FOG
ALBANY         CLOUDY    57  54  89 S18G24    29.42R
GLENS FALLS    FOG       38  37  97 NE3       29.40S VSB 1/4

$$
NHZ002-005-011-250900-
_____NEW HAMPSHIRE_____


CITY           SKY/WX    TMP DP  RH WIND       PRES   REMARKS
LEBANON        CLOUDY    35  33  92 CALM      29.46S FOG
KEENE          CLOUDY    39  39 100 CALM      29.48F
MT WASHINGTON  FOG       43  43 100 SW81G93     N/A  VSB 0
PLYMOUTH       CLOUDY    35  35 100 CALM      29.49S FOG
WHITEFIELD     CLOUDY    37  35  92 S3        29.40F FOG

$$

_____REGIONAL QUEBEC LOCATIONS_____


CITY           SKY/WX    TMP DP  RH WIND       PRES   REMARKS
MONTREAL       LGT RAIN  45  43  93 S12       29.25S
QUEBEC CITY    DRZL/FOG  34  34 100 E12G18    29.35F VSB 3/4
SHERBROOKE     PTSUNNY   45  45 100 S6        29.34F FOG

_____REGIONAL ONTARIO LOCATIONS_____


CITY           SKY/WX    TMP DP  RH WIND       PRES   REMARKS
OTTAWA         LGT RAIN  46  45  93 SW36G54   29.22S

______KEY______
VSB  - VISIBILITY IN MILES
WCI  - WIND CHILL INDEX
HX   - HEAT INDEX
$$
NNNN



USA.gov is the U.S. government's official web portal to all federal, state and local government web resources and services.